Content
SEND FEEDBACK

Daily
Averages
Monthly
Summary
United Kingdom

LEEMING, ENGLAND


Home > Europe > United Kingdom > England
Elevation: 131 feet     Latitude: 54 18N     Longitude: 001 31W

WEATHER
 
SELECT A DAY
Number of Records: 69,751;   Date Range: 8/10/96 - 11/26/14
 
SHARE

PRINT THIS DATA

[ ← Previous Day ]
WEATHER ALMANAC - JULY 20, 2014
[ Next Day → ]
[ °C ]   °F
Weather ElementAverageHighLow
Temperature66.4 °F71.6 °F (10:50 am)59 °F (3:50 am)
Dewpoint61.6 °F64.4 °F (1:50 pm)59 °F (3:50 am)
Humidity83.4 %100 % (1:50 am)63 % (5:00 pm)
Barometer29.83 in29.94 in (11:00 pm)29.77 in (12:50 am)
Wind Speed4.8 mph9.2 mph (12:50 pm)
Weather ElementAverage
Visibility5.5 mi
Wind DirectionSSE (168.7 °)

Weather ElementTotal
Precipitation---
Cooling Degree Days0.3 (Base 65)
Growing Degree Days15.3 (Base 50)
Averaged from 45 records on July 20, 2014
WEATHER CONDITIONS BREAKOUT
WIND DIRECTION BREAKOUT
WEATHER BY HOUR - JULY 20, 2014
[ °C ]   °F
Local TimeTemperatureDewpointHumidityBarometerVisibilityWind DirectionWind SpeedGust SpeedPrecipitationEventsConditions
12:50 AM62.6 °F60.8 °F94 %29.77 in0.0 miWest (270°)3.5 mphFogFog
1:00 AM62.0 °F61.0 °F97 %29.77 in0.0 miWest (270°)3.5 mphFogFog
1:50 AM60.8 °F60.8 °F100 %29.77 in0.1 miENE (70°)2.3 mphFogFog
2:00 AM61.0 °F61.0 °F100 %29.78 in0.0 miENE (70°)2.3 mphFogFog
3:00 AM60.0 °F60.0 °F100 %29.78 in0.0 miWNW (290°)3.5 mphFogFog
3:50 AM59.0 °F59.0 °F100 %29.77 in0.1 miNNE (30°)2.3 mphFogFog
4:00 AM59.0 °F59.0 °F100 %29.78 in0.0 miNNE (30°)2.3 mphFogFog
4:50 AM60.8 °F60.8 °F100 %29.77 in1.2 miSouth (180°)1.2 mphMostly Cloudy
5:00 AM61.0 °F60.0 °F97 %29.79 in1.0 miSouth (180°)1.2 mphFogFog
5:50 AM60.8 °F60.8 °F100 %29.80 in1.1 miNorth (10°)1.2 mphOvercast
6:00 AM61.0 °F61.0 °F100 %29.81 in1.0 miNorth (10°)1.2 mphFogFog
6:50 AM60.8 °F60.8 °F100 %29.80 inNW (320°)5.8 mphMostly Cloudy
7:00 AM61.0 °F61.0 °F100 %29.81 in2.0 miNW (320°)5.8 mphMist
7:50 AM62.6 °F60.8 °F94 %29.80 in3.7 miNW (310°)4.6 mphOvercast
8:00 AM62.0 °F61.0 °F97 %29.81 in4.0 miNW (310°)4.6 mphMist
8:50 AM64.4 °F60.8 °F88 %29.80 in6.2 miNorth (350°)3.5 mphOvercast
9:00 AM65.0 °F62.0 °F85 %29.81 in7.0 miNorth (350°)3.5 mphOvercast
9:50 AM68.0 °F62.6 °F83 %29.80 in6.2 miNorth (360°)5.8 mph
10:00 AM68.0 °F62.0 °F76 %29.81 in11.0 miNorth5.8 mph
10:50 AM71.6 °F62.6 °F73 %29.80 in6.2 miSE (130°)3.5 mphPartly Cloudy
11:00 AM71.0 °F62.0 °F67 %29.82 in11.0 miSE (130°)3.5 mphScattered Clouds
11:50 AM71.6 °F62.6 °F73 %29.80 in6.2 miENE (60°)6.9 mphMostly Cloudy
12:00 PM71.0 °F63.0 °F69 %29.82 in9.0 miENE (60°)6.9 mphScattered Clouds
12:50 PM71.6 °F62.6 °F73 %29.83 in6.2 miNE (50°)9.2 mphScattered Clouds
1:00 PM71.0 °F63.0 °F68 %29.83 in9.0 miNE (50°)9.2 mphPartly Cloudy
1:50 PM69.8 °F64.4 °F83 %29.83 in5.0 miNNE (20°)8.1 mphRainLight Rain Showers
2:00 PM69.0 °F64.0 °F80 %29.84 in5.0 miNNE (20°)8.1 mphRainLight Rain Showers
2:50 PM71.6 °F62.6 °F73 %29.83 in6.2 miNorth (10°)8.1 mphScattered Clouds
3:00 PM71.0 °F63.0 °F68 %29.85 in8.0 miNorth (10°)8.1 mphRainRain
3:50 PM69.8 °F60.8 °F73 %29.83 in6.2 miNE (40°)5.8 mphMostly Cloudy
4:00 PM70.0 °F61.0 °F66 %29.85 in9.0 miNE (40°)5.8 mphMostly Cloudy
4:50 PM69.8 °F60.8 °F73 %29.86 in6.2 miNE (50°)3.5 mphMostly Cloudy
5:00 PM71.0 °F61.0 °F63 %29.86 in10.0 miNE (50°)3.5 mphPartly Cloudy
5:50 PM69.8 °F60.8 °F73 %29.86 in6.2 miWSW (250°)5.8 mphOvercast
6:00 PM71.0 °F61.0 °F64 %29.87 in9.0 miWSW (250°)5.8 mphOvercast
6:50 PM69.8 °F62.6 °F78 %29.86 in6.2 miWest (260°)5.8 mphOvercast
7:00 PM69.0 °F62.0 °F72 %29.88 in11.0 miWest (260°)5.8 mphOvercast
7:50 PM68.0 °F62.6 °F83 %29.89 in6.2 miSSW (210°)3.5 mphMostly Cloudy
8:00 PM69.0 °F62.0 °F73 %29.89 in10.0 miSSW (210°)3.5 mphScattered Clouds
8:50 PM69.8 °F62.6 °F78 %29.89 in6.2 miSW (230°)3.5 mphScattered Clouds
9:00 PM69.0 °F63.0 °F76 %29.91 in9.0 miSW (230°)3.5 mphMostly Cloudy
9:50 PM66.2 °F62.6 °F88 %29.92 in6.2 miNNW (330°)3.5 mphScattered Clouds
10:00 PM66.0 °F63.0 °F86 %29.93 in9.0 miNNW (330°)3.5 mphMostly Cloudy
10:50 PM64.4 °F60.8 °F88 %29.92 in6.2 miWNW (290°)9.2 mphMostly Cloudy
11:00 PM65.0 °F60.0 °F80 %29.94 in9.0 miWNW (290°)9.2 mphScattered Clouds
Hourly data recorded from EGXE, located miles away from Leeming, England







STORIES FROM OUR PARTNERS